DateTimeUTC,F1_A11,F1_S11,BsB_S11,BsG_S11,BsR_S11,BbsB_S11,BbsG_S11,BbsR_S11,BaB_A11,BaG_A11,BaR_A11,Tu_S11,T_S11,Uu_S11,U_S11,P_S11,T1_A11
2021-07-09T12:00:00Z,00000200,20000000,,,,,,,0000.24,-000.04,0000.12,17.3,24.0,01.5,01.0,0669.1,30.9
2021-07-09T12:01:00Z,00000200,20000000,,,,,,,0000.04,-000.06,0000.11,17.3,24.0,01.5,01.0,0669.1,30.9
2021-07-09T12:02:00Z,00000200,20000000,,,,,,,-000.16,-000.13,0000.22,17.3,24.0,01.5,01.0,0669.1,30.9
2021-07-09T12:03:00Z,00000200,60000000,,,,,,,0000.04,0000.40,-000.28,17.3,24.0,01.5,01.0,0669.1,30.9
2021-07-09T12:04:00Z,00000200,41000000,0000.48,0000.17,-000.01,0000.58,-000.19,0000.04,0000.22,-000.33,0000.03,17.5,23.9,01.7,01.1,0670.0,30.9
2021-07-09T12:05:00Z,00000200,01000000,0000.49,-000.15,0000.08,-000.37,-000.16,0000.12,0000.01,0000.25,0000.08,17.6,23.9,01.7,01.1,0670.1,31.0
2021-07-09T12:06:00Z,00000200,01000000,0000.04,-000.34,-000.32,0000.13,-000.07,0000.00,-000.12,-000.20,0000.01,17.6,23.9,01.7,01.2,0670.1,31.0
2021-07-09T12:07:00Z,00000200,01000000,0000.63,0000.17,-000.23,0000.27,-000.06,0000.09,0000.09,0000.22,-000.01,17.7,23.9,01.7,01.2,0670.1,31.0
2021-07-09T12:08:00Z,00000200,01000000,0001.01,-000.17,-000.01,-000.21,0000.19,0000.04,0000.12,0000.05,-000.14,17.7,23.9,01.7,01.2,0670.1,30.9
2021-07-09T12:09:00Z,00000200,01000000,0000.51,0000.21,-000.12,-000.05,0000.12,-000.14,0000.09,0000.02,0000.31,17.7,23.9,01.7,01.2,0670.1,30.9
2021-07-09T12:10:00Z,00000200,01000000,0000.19,0000.07,-000.33,0000.11,-000.10,-000.04,-000.02,0000.04,-000.27,17.7,23.9,01.8,01.2,0670.1,30.9
2021-07-09T12:11:00Z,00000200,01000000,0000.79,-000.23,0000.14,-000.35,-000.04,0000.30,-000.25,0000.21,0000.20,17.7,23.9,01.8,01.2,0670.2,30.9
2021-07-09T12:12:00Z,00000200,01000000,0000.38,0000.10,-000.22,-000.22,0000.15,0000.03,0000.45,0000.16,0000.21,17.7,23.9,01.8,01.2,0670.2,30.9
2021-07-09T12:13:00Z,00000200,01000000,-000.04,0000.07,0000.08,0000.09,0000.01,-000.14,0000.12,-000.20,0000.07,17.7,23.9,01.8,01.2,0670.2,30.9
2021-07-09T12:14:00Z,00000200,01000000,0000.29,0000.27,0000.21,0000.35,0000.16,0000.17,-000.14,-000.11,0000.05,17.7,23.9,01.9,01.3,0670.2,30.9
2021-07-09T12:15:00Z,00000200,01000000,0000.97,0000.35,-000.17,0000.02,-000.12,0000.11,0000.11,0000.25,-000.12,17.7,23.9,01.8,01.3,0670.2,30.9
2021-07-09T12:16:00Z,00000200,01000000,0000.70,0000.12,-000.02,-000.03,0000.11,0000.24,0000.06,0000.03,0000.20,17.7,23.9,01.8,01.2,0670.2,30.9
2021-07-09T12:17:00Z,00000200,00000000,0000.63,-000.04,-000.02,-000.12,0000.00,-000.01,-000.25,0000.03,-000.15,17.7,23.9,01.9,01.3,0670.2,30.9
2021-07-09T12:18:00Z,00000200,00000000,0000.96,0000.08,0000.20,0000.02,-000.01,0000.14,0000.15,0000.26,0000.36,17.7,23.9,01.9,01.3,0670.2,30.9
2021-07-09T12:19:00Z,00000200,01000000,-000.41,0000.17,-000.21,0000.22,-000.01,-000.07,0000.21,-000.34,-000.35,17.7,23.9,01.9,01.3,0670.2,30.9
2021-07-09T12:20:00Z,00000200,00000000,0000.90,-000.11,-000.14,0000.73,0000.18,0000.10,0000.20,0000.15,0000.00,17.8,23.9,02.0,01.3,0670.2,30.9
2021-07-09T12:21:00Z,00000200,00000000,0000.55,0000.21,0000.02,0000.01,0000.10,0000.08,-000.17,0000.12,0000.17,17.8,23.9,01.8,01.3,0670.2,30.9
2021-07-09T12:22:00Z,00000200,01000000,0000.43,0000.12,0000.04,-000.25,0000.16,0000.06,0000.11,-000.19,-000.02,17.8,23.9,02.0,01.4,0670.2,30.9
2021-07-09T12:23:00Z,00000200,01000000,0000.03,0000.16,-000.06,-000.14,-000.30,0000.27,0000.04,0000.14,0000.20,17.8,23.9,02.0,01.4,0670.2,30.9
2021-07-09T12:24:00Z,00000200,00000000,0000.31,-000.07,-000.02,0000.58,0000.01,0000.32,-000.09,0000.11,-000.14,17.8,23.9,02.0,01.4,0670.2,30.9
2021-07-09T12:25:00Z,00000200,00000000,0000.11,0000.14,-000.04,0000.45,0000.02,0000.05,-000.07,-000.38,0000.09,17.8,23.9,02.0,01.4,0670.2,30.9
2021-07-09T12:26:00Z,00000200,00000000,0000.46,0000.13,0000.14,0000.03,-000.05,0000.30,0000.05,-000.14,-000.29,17.8,24.0,02.0,01.4,0670.2,30.9
2021-07-09T12:27:00Z,00000200,00000000,0000.92,0000.18,0000.21,-000.17,0000.23,-000.03,0000.24,0000.45,0000.20,17.8,24.0,02.0,01.4,0670.2,30.9
2021-07-09T12:28:00Z,00000200,00000000,0000.51,-000.03,0000.08,0000.68,0000.03,0000.10,-000.09,0000.05,-000.07,17.8,24.0,02.0,01.4,0670.2,30.9
2021-07-09T12:29:00Z,00000200,00000000,0000.25,-000.17,-000.10,0000.05,-000.07,0000.45,-000.30,-000.06,0000.36,17.8,24.0,02.0,01.4,0670.2,30.9
2021-07-09T12:30:00Z,00000200,00000000,0000.21,0000.19,0000.04,-000.21,-000.02,0000.38,0000.23,0000.01,0000.13,17.8,24.0,02.1,01.4,0670.3,31.0
2021-07-09T12:31:00Z,00000200,00000000,0000.92,0000.26,-000.07,-000.01,-000.01,0000.24,-000.08,0000.24,-000.11,17.8,24.0,02.2,01.5,0670.3,31.0
2021-07-09T12:32:00Z,00000200,00000000,0000.50,0000.13,-000.16,-000.04,0000.06,0000.01,0000.34,-000.13,-000.10,17.8,24.0,02.1,01.4,0670.3,31.0
2021-07-09T12:33:00Z,00000200,00000000,0000.50,-000.16,-000.11,0000.04,-000.17,-000.03,0000.20,0000.15,0000.25,17.8,24.0,02.1,01.4,0670.3,31.0
2021-07-09T12:34:00Z,00000200,00000000,0000.48,-000.25,-000.08,-000.21,0000.20,0000.25,-000.17,0000.13,-000.38,17.8,24.0,02.1,01.4,0670.3,31.0
2021-07-09T12:35:00Z,00000200,00000000,0000.29,-000.01,-000.12,-000.23,-000.16,0000.04,-000.13,-000.30,0000.49,17.8,24.0,02.1,01.5,0670.3,30.9
2021-07-09T12:36:00Z,00000200,00000000,0000.33,0000.12,0000.50,0000.45,0000.25,0000.62,0000.19,0000.27,-000.46,17.9,24.0,02.1,01.5,0670.3,30.9
2021-07-09T12:37:00Z,00000200,01000000,0000.26,0000.24,0000.14,-000.31,0000.08,0000.37,-000.03,0000.09,-000.05,17.9,24.0,02.1,01.5,0670.4,30.9
2021-07-09T12:38:00Z,00000200,00000000,0000.70,0000.26,-000.09,-000.42,-000.07,0000.34,0000.22,0000.14,0000.52,17.9,24.0,02.1,01.5,0670.4,30.9
2021-07-09T12:39:00Z,00000200,01000000,-000.00,-000.07,0000.13,0000.40,-000.30,-000.11,-000.07,-000.19,-000.22,17.9,24.0,02.2,01.5,0670.4,30.9
2021-07-09T12:40:00Z,00000200,00000000,-000.35,0000.21,-000.14,0000.68,-000.03,0000.28,0000.26,0000.03,0000.17,17.9,24.1,02.2,01.5,0670.4,30.9
2021-07-09T12:41:00Z,00000200,00000000,0000.28,-000.18,0000.12,-000.33,0000.15,-000.08,-000.52,0000.03,0000.30,17.9,24.0,02.3,01.6,0670.4,30.9
2021-07-09T12:42:00Z,00000200,00000000,0000.12,0000.40,-000.14,0000.77,-000.05,0000.29,0000.40,0000.28,-000.40,17.9,24.0,02.2,01.5,0670.4,30.9
2021-07-09T12:43:00Z,00000200,00000000,0000.36,0000.25,0000.25,0000.52,-000.09,0000.22,-000.28,-000.49,-000.09,17.9,24.0,02.2,01.5,0670.4,30.9
2021-07-09T12:44:00Z,00000200,00000000,0000.37,0000.26,0000.14,0000.90,0000.15,0000.12,0000.02,0000.38,0000.20,17.9,24.0,02.2,01.5,0670.4,30.9
2021-07-09T12:45:00Z,00000200,00000000,0000.24,0000.19,0000.03,-000.21,0000.06,0000.19,0000.06,-000.02,0000.03,17.9,24.0,02.4,01.6,0670.4,30.9
2021-07-09T12:46:00Z,00000200,00000000,0000.29,-000.01,-000.19,-000.04,-000.00,0000.20,0000.31,0000.22,0000.35,17.9,24.1,02.3,01.6,0670.4,30.9
2021-07-09T12:47:00Z,00000200,00000000,-000.03,-000.06,0000.18,-000.09,0000.16,0000.32,0000.17,-000.23,-000.05,17.9,24.1,02.4,01.6,0670.4,30.9
2021-07-09T12:48:00Z,00000200,00000000,0000.68,-000.21,0000.40,-000.00,0000.12,0000.38,0000.02,0000.43,-000.15,17.9,24.1,02.4,01.6,0670.4,30.9
2021-07-09T12:49:00Z,00000200,01000000,0000.38,0000.18,0000.30,0000.13,-000.24,0000.16,-000.12,-000.11,0000.03,18.0,24.1,02.4,01.6,0670.4,30.9
2021-07-09T12:50:00Z,00000200,00000000,-000.34,0000.02,-000.04,-000.08,0000.00,0000.04,-000.08,-000.19,0000.26,18.0,24.1,02.4,01.7,0670.5,31.0
2021-07-09T12:51:00Z,00000200,00000000,-000.26,0000.26,-000.13,0000.13,0000.11,-000.22,0000.07,0000.04,-000.42,18.1,24.2,02.4,01.6,0670.5,31.0
2021-07-09T12:52:00Z,00000200,00000000,0001.02,0000.01,0000.22,-000.45,-000.18,0000.03,0000.00,0000.13,0000.01,18.1,24.2,02.2,01.5,0670.5,31.0
2021-07-09T12:53:00Z,00000200,00000000,0000.58,-000.26,-000.00,-000.01,-000.05,0000.04,-000.01,0000.10,0000.36,18.1,24.2,02.4,01.7,0670.5,31.0
2021-07-09T12:54:00Z,00000200,00000000,0000.74,-000.16,-000.26,-000.34,0000.01,-000.23,0000.32,0000.11,0000.01,18.1,24.2,02.4,01.6,0670.5,31.0
2021-07-09T12:55:00Z,00000200,00000000,0000.26,0000.18,-000.24,0000.08,0000.06,-000.45,-000.18,-000.21,-000.24,18.1,24.2,02.4,01.6,0670.5,30.9
2021-07-09T12:56:00Z,00000200,00000000,-000.14,0000.06,-000.06,-000.23,-000.03,0000.21,0000.11,-000.04,0000.13,18.1,24.2,02.3,01.6,0670.5,31.0
2021-07-09T12:57:00Z,00000200,40000000,,,,,,,-000.33,-000.25,-000.25,18.1,24.2,01.9,01.3,0670.5,31.0
2021-07-09T12:58:00Z,00000200,60000000,,,,,,,0000.06,0000.30,0000.38,17.9,24.3,02.3,01.5,0669.5,31.0
2021-07-09T12:59:00Z,00000200,20000000,,,,,,,0000.21,-000.29,-000.19,17.9,24.4,02.2,01.5,0669.5,31.0
